[Iaude] MPEC M34: 2024 MM [a=1.17,e=0.19,i=13.4,H=24.5]
    mpec at cfa.harvard.edu 
    mpec at cfa.harvard.edu
       
    Thu Jun 20 06:23:48 EDT 2024
    
    
  
M.P.E.C. 2024-M34                                 Issued 2024 June 20, 10:22 UT
     The Minor Planet Electronic Circulars contain information on unusual
         minor planets, routine data on comets and natural satellites,
         and occasional editorial announcements.  They are published
    on behalf of Division F of the International Astronomical Union by the
          Minor Planet Center, Smithsonian Astrophysical Observatory,
                          Cambridge, MA 02138, U.S.A.
			  
             Prepared using the Tamkin Foundation Computer Network
                              MPC at CFA.HARVARD.EDU
            URL https://www.minorplanetcenter.net/    ISSN 1523-6714
                                    2024 MM                                     
Observations:
     K24M00M  C2024 06 10.50125121 36 19.888+17 32 31.48         20.98GVEM034F52
     K24M00M  C2024 06 10.51406921 36 19.398+17 29 52.19         22.65GVEM034F52
     K24M00M  C2024 06 10.51472221 36 19.333+17 29 44.37         21.69GVEM034F52
     K24M00M  C2024 06 10.52705321 36 18.812+17 27 11.88         20.85GVEM034F52
     K24M00M  C2024 06 10.52774321 36 18.776+17 27 02.94         20.88GVEM034F52
     K24M00M  C2024 06 10.54011621 36 18.203+17 24 29.71         20.34GVEM034F52
     K24M00M  C2024 06 10.54076821 36 18.177+17 24 21.60         20.23GVEM034F52
     K24M00M  C2024 06 14.56443421 35 50.519+02 33 43.37         21.09GVEM034F51
     K24M00M  C2024 06 14.56507921 35 50.472+02 33 34.39         20.86GVEM034F51
     K24M00M  C2024 06 14.58885521 35 48.917+02 28 06.87         20.50GVEM034F51
     K24M00M  C2024 06 14.60110821 35 48.111+02 25 18.27         20.21GVEM034F51
     K24M00M  C2024 06 15.54155321 35 36.476-01 11 02.32         20.89GVEM034F52
     K24M00M  C2024 06 15.55417621 35 35.636-01 13 57.12         21.01GVEM034F52
     K24M00M  C2024 06 15.57950821 35 33.883-01 19 47.04         20.08GVEM034F52
     K24M00M* C2024 06 18.55707821 34 23.418-12 34 25.30         20.50wXEM034F51
     K24M00M  C2024 06 18.56873321 34 22.461-12 36 59.57         20.72wXEM034F51
     K24M00M  C2024 06 18.58039521 34 21.468-12 39 33.35         20.17wXEM034F51
     K24M00M  C2024 06 19.57113021 33 48.934-16 14 18.21         19.28GVEM034F51
     K24M00M  C2024 06 19.57194921 33 48.893-16 14 28.76         20.55GVEM034F51
     K24M00M  C2024 06 19.57276921 33 48.825-16 14 39.34         20.65GVEM034F51
Observer details:
F51 Pan-STARRS 1, Haleakala.  Observers J. Herman, T. Lowe, P. Minguez, A.
    Schultz, I. Smith.  Measurers K. Chambers, T. de Boer, J. Fairlamb, H.
    Gao, M. Huber, C.-C. Lin, E. Magnier, Y. Ramanjooloo, R. Wainscoat, R.
    Weryk.  1.8-m Ritchey-Chretien + CCD.
F52 Pan-STARRS 2, Haleakala.  Observers J. Herman, T. Lowe, P. Minguez, A.
    Schultz, I. Smith.  Measurers K. Chambers, T. de Boer, J. Fairlamb, H.
    Gao, M. Huber, C.-C. Lin, E. Magnier, Y. Ramanjooloo, R. Wainscoat, R.
    Weryk.  1.8-m Ritchey-Chretien + CCD.
Orbital elements:
2024 MM                                                  Earth MOID = 0.0345 AU
Epoch 2024 Mar. 31.0 TT = JDT 2460400.5                 Veres                   
M 347.81796              (2000.0)            P               Q                  
n   0.77911044     Peri.  110.72052     -0.90379068     +0.35948285             
a   1.1696880      Node    90.94316     -0.42472463     -0.82013445             
e   0.1875165      Incl.   13.43072     +0.05264396     -0.44514219             
P   1.27           H   24.50          G   0.15           U   8                  
Residuals in seconds of arc
240610 F52  0.2-  0.2+    240614 F51  0.0   0.1+    240618 F51  0.0   0.1-
240610 F52  0.3+  0.5-    240614 F51  0.1-  0.0     240618 F51  0.1+  0.1-
240610 F52  0.2-  0.3-    240614 F51  0.1-  0.2-    240618 F51  0.3-  0.3+
240610 F52  0.1+  0.1+    240614 F51  0.0   0.0     240619 F51  0.4-  0.3+
240610 F52  0.0   0.3-    240615 F52  0.0   0.5+    240619 F51  0.0   0.3+
240610 F52  0.0   0.1+    240615 F52  0.1+  0.1+    240619 F51  0.1+  0.2+
240610 F52  0.0   0.1+    240615 F52  0.0   0.0
Ephemeris:
2024 MM                  a,e,i = 1.17, 0.19, 13                  q = 0.9504
Date    TT    R. A. (2000) Decl.     Delta      r    Elong.  Phase     V
2024 05 21    21 34 10.0 +60 24 48   0.1226  0.9868    74.7    98.4    23.5
...
2024 06 05    21 35 38.5 +34 22 45   0.07873 1.0204    92.0    83.6    21.9
...
2024 06 13    21 36 05.1 +08 30 16   0.06643 1.0414   111.1    65.5    21.0
...
2024 06 19    21 34 07.6 -14 09 56   0.06797 1.0580   126.6    50.4    20.7
2024 06 20    21 33 32.4 -17 43 35   0.06921 1.0609   128.8    48.3    20.6
2024 06 21    21 32 52.1 -21 09 14   0.07072 1.0637   130.8    46.3    20.6
...
2024 06 27    21 26 50.6 -38 18 30   0.08447 1.0812   138.5    38.6    20.8
...
2024 07 05    21 12 50.2 -52 34 14   0.1115  1.1051   140.6    35.8    21.4
...
2024 07 20    20 34 30.3 -63 26 09   0.1757  1.1505   136.8    37.2    22.5
M. P. C. Staff               (C) Copyright 2024 MPC           M.P.E.C. 2024-M34
    
    
More information about the Iaude
mailing list